FW8731 Weather Reports


Display with metric or nautical units.
time (UTC)temp
F
wind
direction
speed
MPH
gust
MPH
rain 1hr
in
rain 24hr
in
rain mn
in
humidity
%
barometer
mb
20260903081549 54 0 0.0 1.0 0.00 0.75 0.00 93 1013.6
20260903080055 54 0 0.0 0.0 0.00 0.75 0.00 93 1013.4
20260903074604 54 0 0.0 0.0 0.00 0.75 0.00 93 1013.4
20260903073048 54 0 0.0 3.0 0.00 0.75 0.00 93 1013.4
20260903071550 54 167 0.0 3.0 0.00 0.75 0.00 93 1013.2
20260903070043 54 0 0.0 1.0 0.00 0.75 0.00 93 1013.2
20260903064551 54 0 0.0 3.0 0.00 0.75 0.75 93 1013.3
20260903063048 55 0 0.0 2.0 0.00 0.75 0.75 93 1013.3
20260903061552 55 0 0.0 3.0 0.00 0.75 0.75 93 1013.3
20260903060056 55 0 0.0 3.0 0.01 0.75 0.75 93 1013.3
20260903054552 55 0 0.0 2.0 0.01 0.75 0.75 93 1013.4
20260903053104 56 169 1.0 4.0 0.01 0.75 0.75 93 1013.4
20260903051600 56 0 0.0 2.0 0.01 0.75 0.75 93 1013.3
20260903050049 56 168 0.0 1.0 0.00 0.74 0.74 93 1013.1
20260903044553 56 0 0.0 4.0 0.01 0.74 0.74 93 1012.9
20260903043053 57 169 0.0 6.0 0.01 0.74 0.74 93 1012.7
20260903041551 57 81 0.0 3.0 0.01 0.74 0.74 93 1012.5
20260903040046 57 219 0.0 2.0 0.01 0.74 0.74 93 1012.3
20260903034543 57 0 1.0 3.0 0.00 0.73 0.73 93 1012.1
20260903033043 57 261 0.0 2.0 0.00 0.73 0.73 93 1011.9
20260903031552 56 0 0.0 0.0 0.00 0.73 0.73 93 1011.9
20260903030048 56 0 0.0 1.0 0.02 0.73 0.73 93 1011.9
20260903024546 56 238 0.0 3.0 0.02 0.73 0.73 93 1011.6
20260903023055 57 0 0.0 2.0 0.07 0.73 0.73 93 1011.7
20260903021553 56 0 0.0 2.0 0.11 0.73 0.73 93 1011.5
20260903020048 56 284 0.0 1.0 0.12 0.71 0.71 93 1011.9
20260903014553 56 0 0.0 0.0 0.14 0.71 0.71 92 1012.0
20260903013057 57 0 0.0 1.0 0.11 0.66 0.66 93 1011.9
20260903011547 57 0 0.0 1.0 0.11 0.62 0.62 92 1011.8
20260903010110 57 0 0.0 1.0 0.12 0.58 0.58 92 1011.7
20260903004558 57 0 0.0 1.0 0.12 0.57 0.57 92 1011.7
20260903003051 57 0 0.0 1.0 0.13 0.55 0.55 92 1011.6
20260903001552 57 0 0.0 2.0 0.12 0.51 0.51 92 1011.5
20260903000048 58 0 0.0 1.0 0.12 0.47 0.47 92 1011.7
20260902234554 58 0 0.0 1.0 0.14 0.45 0.45 92 1011.5
20260902233053 58 0 0.0 0.0 0.15 0.42 0.42 92 1011.5
20260902231552 58 0 0.0 1.0 0.15 0.39 0.39 92 1011.7
20260902230058 58 0 0.0 1.0 0.13 0.35 0.35 91 1011.8
20260902224553 58 0 0.0 2.0 0.13 0.31 0.31 91 1011.6
20260902223052 58 0 0.0 3.0 0.10 0.27 0.27 92 1011.5
20260902221546 58 315 0.0 2.0 0.09 0.24 0.24 92 1011.3
20260902220100 58 0 0.0 0.0 0.08 0.22 0.22 92 1011.4
20260902214552 58 0 0.0 1.0 0.07 0.18 0.18 92 1011.5
20260902213046 58 0 0.0 1.0 0.07 0.17 0.17 92 1011.4
20260902211547 58 316 0.0 1.0 0.06 0.15 0.15 91 1011.4
20260902210055 57 0 0.0 2.0 0.06 0.14 0.14 90 1011.3
20260902204553 58 0 0.0 1.0 0.04 0.11 0.11 90 1011.3
20260902203047 58 0 0.0 1.0 0.04 0.10 0.10 90 1011.4
20260902201554 58 0 1.0 3.0 0.04 0.09 0.09 90 1011.4
20260902200047 57 304 0.0 2.0 0.03 0.08 0.08 90 1011.5
20260902194543 57 0 0.0 2.0 0.03 0.07 0.07 89 1011.5
20260902193054 57 0 0.0 2.0 0.02 0.06 0.06 89 1011.5
20260902191554 57 0 0.0 2.0 0.02 0.05 0.05 88 1011.5
20260902190049 57 291 0.0 2.0 0.03 0.05 0.05 89 1011.5
20260902184623 57 0 0.0 2.0 0.03 0.04 0.04 89 1011.5
20260902183050 57 0 0.0 3.0 0.03 0.04 0.04 89 1011.8
20260902181609 56 215 0.0 3.0 0.02 0.03 0.03 88 1011.7
20260902180058 56 0 0.0 1.0 0.01 0.02 0.02 88 1011.6
20260902174600 56 0 0.0 1.0 0.00 0.01 0.01 88 1011.6
20260902173043 55 0 0.0 1.0 0.01 0.01 0.01 88 1011.2
20260902171547 55 0 0.0 1.0 0.01 0.01 0.01 88 1011.3
20260902170052 55 0 0.0 1.0 0.01 0.01 0.01 88 1011.2
20260902164556 55 0 0.0 0.0 0.01 0.01 0.01 86 1011.2
20260902163047 54 0 0.0 0.0 0.00 0.00 0.00 86 1011.3
20260902161600 54 0 0.0 1.0 0.00 0.00 0.00 84 1011.2
20260902160044 55 0 0.0 0.0 0.00 0.00 0.00 81 1011.2
20260902154610 55 0 0.0 0.0 0.00 0.00 0.00 82 1011.3
20260902153051 55 0 0.0 1.0 0.00 0.00 0.00 80 1011.4
20260902151551 54 0 0.0 1.0 0.00 0.00 0.00 80 1011.5
20260902150044 54 0 0.0 0.0 0.00 0.00 0.00 80 1011.6
20260902144553 54 0 0.0 1.0 0.00 0.00 0.00 79 1011.5
20260902143050 54 0 0.0 0.0 0.00 0.00 0.00 79 1011.6
20260902141545 54 0 0.0 1.0 0.00 0.00 0.00 80 1011.6
20260902140052 54 0 0.0 0.0 0.00 0.00 0.00 79 1011.7
20260902134603 54 0 0.0 0.0 0.00 0.00 0.00 79 1011.7
20260902133057 54 0 0.0 0.0 0.00 0.00 0.00 79 1011.8
20260902131552 54 0 0.0 0.0 0.00 0.00 0.00 79 1011.9
20260902130052 54 0 0.0 0.0 0.00 0.00 0.00 79 1011.9
20260902124603 54 0 0.0 0.0 0.00 0.00 0.00 79 1012.0
20260902123054 53 0 0.0 0.0 0.00 0.00 0.00 79 1011.9
20260902121554 53 0 0.0 0.0 0.00 0.00 0.00 79 1012.0
20260902120048 53 0 0.0 0.0 0.00 0.00 0.00 79 1012.1
20260902114543 53 0 0.0 0.0 0.00 0.00 0.00 80 1012.3
20260902113050 53 0 0.0 2.0 0.00 0.00 0.00 80 1012.4
20260902111549 53 0 0.0 0.0 0.00 0.00 0.00 79 1012.8
20260902110053 53 0 0.0 1.0 0.00 0.00 0.00 79 1013.0
20260902104552 53 0 0.0 0.0 0.00 0.00 0.00 79 1013.0
20260902103052 53 0 0.0 0.0 0.00 0.00 0.00 79 1013.2
20260902101552 53 0 0.0 1.0 0.00 0.00 0.00 78 1013.1
20260902100042 53 0 0.0 0.0 0.00 0.00 0.00 78 1013.1
20260902094552 54 0 0.0 1.0 0.00 0.00 0.00 77 1013.3
20260902093104 54 0 0.0 1.0 0.00 0.00 0.00 76 1013.4
20260902091551 55 0 0.0 1.0 0.00 0.00 0.00 75 1013.4
20260902090049 55 0 0.0 1.0 0.00 0.00 0.00 74 1013.6
20260902084553 56 0 0.0 0.0 0.00 0.00 0.00 74 1013.6
20260902083052 56 0 0.0 0.0 0.00 0.00 0.00 75 1013.9